Location: Stockholm
(59.3330°N, 18.0500°E)
Time: 05:32:29
(UTC+02:00)

NOAA 18 - Pass Details

Date: 11 April 2023
Orbit: 838 x 860 km, 98.9° (Epoch: 31 May)

Event Time Altitude Azimuth Distance (km) Brightness Sun altitude
Exits shadow 00:38:59 - 248° (WSW) 2,754 7.7 -22.5°
Reaches altitude 10° 00:40:29 10° 262° (W) 2,503 7.6 -22.5°
Maximum altitude 00:42:26 12° 282° (WNW) 2,378 7.7 -22.5°
Drops below altitude 10° 00:44:24 10° 303° (WNW) 2,507 8.1 -22.5°
Sets 00:48:40 0° 335° (NNW) 3,446 9.5 -22.5°
